Probability
0 0 0 0 0 0 0 0 0 0 0 0 0 0 0 0 0 0 0 0 0 0 0 0 0 0 0 0 0 0 0 0 0 0 0 0 0 0
0 0 0 0 0 0 0 0 0 0 0 0 0 0 0 0 0 0 0 0 0 0 0 0 0 0 0 0 0 0 0 0 0 0 0 0 0 0
0 0 0 0 0 0 0 0 0 0 0 0 0 0 0 0 0 0 0 0 0 0 0 0 0 0 0 0 0 0 0 0 0 0 0 0 0 0
0 0 0 0 0 0 0 0 0 0 0 0 0 0 0 0 0 0 0 0 0 0 0 0 0 0 0 0 0 0 0 0 0 0 0 0 0 0
0 0 0 0 0 0 0 0 0 0 0 0 0 0 0 0 0 0 0 0 0 0 0 0 0 0 0 0 0 0 0 0 0 0 0 0 0 0
0 0 0 0 0 0 0 0 0 0 0 0 0 0 0 0 0 0 0 0 0 0 0 0 0 0 0 0 0 0 0 0 0 0 0 0 0 0
0 0 0 0 0 0 0 0 0 0 0 0 0 0 0 0 0 0 0 0 0 0 0 0 0 0 0 0 0 0 0 0 0 0 0 0 0 0
0 0 0 0 0 0 0 0 0 0 0 0 0 0 0 0 0 0 0 0 0 0 0 0 0 0 0 0 0 0 0 0 0 0 0 0 0 0
0 0 0 0 0 0 0 0 0 0 0 0 0 0 0 0 0 0 0 0 0 0 0 0 0 0 0 0 0 0 0 0 0 0 0 0 0 0
0 0 0 0 0 0 0 0 0 0 0 0 0 0 0 0 0 0 0 0 0 0 0 0 0 0 0 0 0 0 0 0 0 0 0 0 0 0
0 0 0 0 0 0 0 0 0 0 0 0 0 0 0 0 0 0 0 0 0 0 0 0 0 0 0 0 0 0 0 0 0 0 0 0 0 0
0 0 0 0 0 0 0 0 0 0 0 0 0 0 0 0 0 0 0 0 0 0 0 0 0 0 0 0 0 0 0 0 0 0 0 0 0 0
0 0 0 0 0 0 0 0 0 0 0 0 0 0 0 0 0 0 0 0 0 0 0 0 0 0 0 0 0 0 0 0 0 0 0 0 0 0
0 0 0 0 0 0 0 0 0 0 0 0 0 0 0 0 0 0 0 0 0 0 0 0 0 0 0 0 0 0 0 0 0 0 0 0 0 0
0 0 0 0 0 0 0 0 0 0 0 0 0 0 0 0 0 0 0 0 0 0 0 0 0 0 0 0 0 0 0 0 0 0 0 0 0 0
0 0 0 0 0 0 0 0 0 0 0 0 0 0 0 0 0 0 0 0 0 0 0 0 0 0 0 0 0 0 0 0 0 0 0 0 0 0
0 0 0 0 0 0 0 0 0 0 0 0 0 0 0 0 0 0 0 0 0 0 0 0 0 0 0 0 0 0 0 0 0 0 0 0 0 0
0 0 0 0 0 0 0 0 0 0 0 0 0 0 0 0 0 0 0 0 0 0 0 0 0 0 0 0 0 0 0 0 0 0 0 0 0 0
0 0 0 0 0 0 0 0 0 0 0 0 0 0 0 0 0 0 0 0 0 0 0 0 0 0 0 0 0 0 0 0 0 0 0 0 0 0
0 0 0 0 0 0 0 0 0 0 0 0 0 0 0 0 0 0 0 0 0 0 0 0 0 0 0 0 0 0 0 0 0 0 0 0 0 0
0 0 0 0 0 0 0 0 0 0 0 0 0 0 0 0 0 0 0 0 0 0 0 0 0 0 0 0 0 0 0 0 0 0 0 0 0 0
0 0 0 0 0 0 0 0 0 0 0 0 0 0 0 0 0 0 0 0 0 0 0 0 0 0 0 0 0 0 0 0 0 0 0 0 0 0
0 0 0 0 0 0 0 0 0 0 0 0 0 0 0 0 0 0 0 0 0 0 0 0 0 0 0 0 0 0 0 0 0 0 0 0 0 0
Height
5789 5791 5793 5795 5796 5798 5799 5800 5800 5800 5799 5799 5798 5797 5796 5794 5793 5791 5789 5787 5785 5782 5779 5776 5773 5769 5766 5761 5757 5753 5748 5744 5739 5735 5730 5725 5720 5715
5783 5784 5786 5788 5789 5790 5791 5792 5792 5792 5792 5791 5790 5789 5787 5786 5784 5782 5780 5778 5776 5773 5770 5766 5763 5759 5755 5751 5747 5742 5738 5733 5728 5724 5719 5714 5709 5704
5776 5778 5780 5781 5782 5783 5784 5784 5784 5784 5784 5783 5782 5780 5779 5778 5776 5774 5771 5769 5766 5763 5760 5756 5753 5749 5745 5741 5737 5732 5728 5723 5718 5713 5709 5704 5699 5694
5771 5772 5773 5774 5775 5776 5777 5777 5777 5776 5776 5775 5774 5772 5771 5770 5767 5765 5763 5760 5757 5754 5751 5747 5743 5739 5735 5731 5727 5723 5718 5714 5709 5705 5700 5696 5691 5686
5765 5766 5767 5768 5769 5769 5770 5770 5770 5769 5768 5767 5766 5765 5763 5761 5759 5757 5754 5751 5748 5745 5742 5738 5734 5730 5727 5723 5718 5714 5710 5706 5701 5697 5693 5688 5684 5679
5759 5760 5761 5762 5762 5763 5763 5763 5762 5762 5761 5760 5759 5757 5755 5753 5751 5748 5745 5742 5740 5736 5733 5729 5726 5722 5718 5715 5711 5707 5703 5699 5695 5691 5687 5683 5678 5673
5753 5754 5755 5756 5756 5756 5756 5756 5755 5755 5754 5753 5751 5749 5747 5745 5743 5740 5737 5734 5731 5728 5725 5722 5718 5715 5711 5708 5704 5701 5697 5694 5690 5686 5682 5678 5674 5669
5748 5749 5749 5750 5750 5750 5750 5749 5749 5748 5747 5745 5743 5742 5740 5737 5735 5732 5729 5727 5724 5721 5718 5715 5711 5708 5705 5702 5699 5696 5692 5689 5686 5682 5678 5674 5670 5666
5742 5743 5743 5743 5744 5744 5743 5743 5742 5741 5740 5738 5736 5734 5732 5730 5727 5725 5722 5719 5716 5714 5711 5708 5706 5703 5700 5697 5694 5691 5688 5685 5682 5678 5675 5671 5668 5664
5736 5737 5738 5738 5738 5738 5737 5737 5736 5735 5733 5731 5730 5728 5725 5723 5720 5718 5715 5713 5710 5708 5705 5703 5700 5698 5695 5692 5690 5687 5684 5682 5679 5675 5672 5669 5666 5662
5731 5731 5732 5732 5732 5732 5731 5731 5730 5728 5727 5725 5723 5721 5719 5716 5714 5712 5710 5707 5705 5703 5700 5698 5695 5693 5691 5689 5686 5684 5682 5679 5676 5674 5671 5668 5664 5661
5726 5726 5726 5726 5726 5726 5725 5724 5723 5722 5720 5719 5717 5715 5713 5711 5709 5707 5705 5703 5700 5698 5696 5694 5691 5689 5687 5685 5683 5681 5679 5677 5675 5672 5669 5666 5663 5659
5721 5721 5721 5721 5721 5720 5719 5718 5717 5716 5715 5713 5711 5709 5707 5706 5704 5702 5700 5698 5696 5694 5692 5690 5688 5686 5684 5682 5681 5679 5677 5675 5673 5671 5668 5665 5662 5659
5716 5716 5716 5715 5715 5714 5714 5713 5712 5710 5709 5708 5706 5705 5703 5701 5700 5698 5696 5694 5692 5691 5688 5687 5685 5683 5682 5680 5679 5677 5676 5674 5672 5670 5667 5665 5661 5658
5711 5711 5711 5710 5710 5709 5709 5708 5707 5706 5705 5703 5702 5700 5699 5698 5696 5694 5693 5691 5689 5687 5685 5684 5682 5681 5680 5679 5677 5676 5675 5673 5671 5669 5666 5664 5660 5657
5707 5707 5706 5706 5705 5705 5704 5703 5702 5702 5700 5699 5698 5697 5695 5694 5693 5691 5689 5688 5686 5685 5683 5682 5680 5679 5678 5677 5676 5675 5674 5672 5670 5668 5666 5663 5660 5656
5703 5703 5702 5702 5702 5701 5701 5700 5699 5698 5697 5696 5695 5693 5692 5691 5690 5688 5687 5685 5684 5683 5681 5680 5679 5678 5677 5676 5675 5674 5673 5671 5669 5667 5665 5662 5659 5655
5700 5700 5699 5699 5699 5698 5698 5697 5696 5695 5694 5693 5692 5691 5689 5688 5687 5686 5684 5683 5682 5681 5680 5679 5678 5677 5676 5675 5675 5673 5672 5670 5668 5666 5664 5661 5658 5654
5698 5697 5697 5697 5696 5696 5695 5694 5693 5692 5691 5690 5689 5688 5687 5686 5685 5683 5682 5681 5680 5679 5678 5677 5676 5676 5675 5674 5674 5672 5671 5669 5667 5665 5662 5659 5656 5653
5696 5696 5695 5695 5694 5694 5693 5692 5691 5690 5689 5688 5687 5686 5685 5684 5683 5682 5681 5680 5679 5678 5677 5676 5676 5675 5674 5674 5673 5672 5670 5668 5666 5664 5661 5658 5654 5651
5695 5695 5694 5694 5693 5692 5692 5691 5690 5688 5687 5686 5685 5684 5683 5682 5681 5681 5680 5679 5678 5677 5677 5676 5675 5674 5673 5673 5672 5670 5669 5667 5664 5662 5659 5656 5653 5649
5695 5695 5694 5693 5692 5692 5690 5689 5688 5687 5686 5685 5684 5683 5682 5682 5681 5680 5679 5679 5678 5677 5676 5676 5675 5674 5673 5672 5671 5669 5667 5665 5663 5660 5657 5654 5651 5647
5696 5695 5694 5694 5692 5691 5690 5689 5688 5687 5686 5685 5684 5683 5682 5682 5681 5680 5679 5679 5678 5677 5676 5675 5674 5673 5672 5671 5669 5667 5665 5663 5660 5658 5655 5651 5648 5645
Wind_Speed
29 30 31 31 32 31 31 31 31 31 31 32 32 33 34 34 34 34 35 36 36 37 38 39 40 42 43 44 44 45 45 45 45 45 44 43 43 43
28 28 28 28 29 30 30 30 30 31 30 31 32 32 32 32 33 34 34 35 36 37 39 40 41 42 42 43 43 43 43 43 43 43 42 41 41 40
26 26 26 27 27 28 28 29 30 29 30 30 30 31 31 32 33 34 34 36 37 38 39 40 40 41 41 41 41 41 41 41 40 39 38 37 36 35
24 24 25 26 27 27 27 27 28 29 29 29 29 29 30 32 33 34 35 36 37 37 38 38 38 38 38 39 38 38 37 37 36 34 33 33 32 31
22 23 24 25 25 25 25 26 27 27 27 28 29 30 31 32 33 34 35 35 36 36 36 36 36 36 36 36 35 34 34 33 31 30 29 29 28 27
22 23 23 23 23 24 25 25 26 26 26 27 29 30 31 32 33 33 33 33 33 33 33 33 33 33 33 32 31 30 29 27 26 25 25 25 24 24
22 22 22 22 23 23 24 24 24 25 26 27 29 30 30 30 31 31 31 31 31 31 31 31 31 30 29 28 27 26 25 23 23 22 22 22 21 21
22 22 23 23 23 23 23 23 24 25 26 27 28 28 29 29 29 29 30 30 29 29 29 28 28 27 25 24 23 23 22 20 20 20 20 19 19 19
21 22 21 21 22 22 23 23 24 25 25 26 26 27 27 27 28 28 28 27 27 26 26 25 25 23 22 21 21 20 19 18 18 17 17 16 17 17
21 21 21 21 22 22 22 22 23 24 24 25 25 26 26 26 26 25 25 24 24 24 23 22 22 20 19 18 18 17 16 15 14 14 14 14 15 16
20 20 21 21 21 21 22 22 23 24 24 24 24 25 24 24 23 22 22 21 21 20 19 19 18 17 16 16 15 14 13 12 12 12 12 13 14 15
19 19 20 20 20 21 21 22 23 23 23 23 23 22 22 21 20 19 19 19 18 18 17 16 15 15 14 13 13 11 11 10 10 11 12 12 14 15
19 20 19 19 20 20 21 21 21 22 22 21 20 20 19 17 17 17 17 16 16 15 15 14 13 13 12 11 10 9 8 9 9 10 10 12 13 15
19 19 19 19 19 20 20 20 21 20 19 19 18 17 16 16 15 15 15 15 14 14 13 12 11 10 9 8 8 7 7 8 8 9 10 12 13 15
18 18 18 18 18 19 19 18 18 18 17 16 15 15 14 14 14 14 14 13 13 12 11 10 9 8 7 6 6 6 6 7 8 9 10 12 14 15
16 16 17 17 17 16 16 16 15 15 14 14 14 13 13 13 13 12 12 12 11 10 9 8 7 6 5 5 5 5 6 7 8 9 11 12 14 16
13 14 14 14 13 13 13 13 13 12 12 12 12 12 12 11 11 11 10 9 9 8 7 6 5 5 4 3 4 5 6 7 8 9 11 13 14 16
11 11 11 11 11 10 10 10 10 11 11 11 10 10 10 10 10 9 8 8 7 6 5 5 4 4 3 3 4 5 6 7 8 10 12 13 15 17
8 8 8 8 8 8 8 9 9 9 9 9 9 9 9 9 9 8 7 6 5 4 4 4 3 3 3 3 4 5 6 8 9 11 13 14 16 17
6 6 6 6 6 7 7 8 8 8 8 7 7 7 8 7 7 6 5 4 4 3 3 3 3 3 3 3 4 6 7 8 10 12 14 15 17 18
4 4 5 5 6 6 6 7 6 6 6 6 6 6 6 5 5 5 4 4 3 3 3 3 3 3 3 4 6 7 9 10 12 13 15 16 17 18
5 5 5 5 5 5 5 5 5 5 5 5 5 5 5 4 4 4 4 3 3 4 3 3 3 4 4 6 7 9 10 12 13 15 15 16 17 18
6 6 6 7 7 6 6 6 6 5 5 5 5 5 5 4 4 4 4 4 4 4 4 4 4 5 6 7 9 10 12 14 15 16 16 17 17 18
Wind_Direction
242 245 248 250 253 257 259 262 265 267 270 272 273 274 277 280 281 284 285 286 287 288 290 291 292 293 294 295 295 296 296 296 296 297 296 295 295 295
243 248 250 253 254 256 260 263 265 267 269 271 273 275 278 281 283 284 286 287 288 290 291 293 294 295 296 296 297 297 298 298 299 298 298 298 298 298
245 245 248 252 254 258 261 264 266 267 270 272 274 276 279 281 283 285 286 288 290 292 293 294 295 296 297 298 298 298 299 300 301 301 301 301 302 303
245 246 250 253 255 259 262 265 268 270 273 274 277 279 281 283 285 287 289 290 292 293 295 296 297 298 299 299 299 300 301 303 303 303 304 305 306 306
249 251 253 256 259 262 265 269 271 274 276 277 279 281 282 284 286 289 290 292 293 295 296 297 298 299 300 300 301 303 304 305 305 306 307 308 309 310
252 254 257 259 262 265 268 271 274 276 279 281 282 283 285 287 288 290 292 294 295 296 297 298 299 300 301 302 304 305 307 307 308 310 312 313 315 316
253 256 258 260 262 267 271 273 276 278 280 282 284 285 287 288 290 292 293 295 296 297 298 299 300 301 302 303 305 307 309 310 312 315 317 320 323 326
255 259 261 263 265 269 272 275 279 280 282 284 285 286 287 289 292 293 294 295 296 297 298 300 301 302 302 303 306 308 309 311 315 318 321 324 328 332
259 260 262 264 267 271 274 278 280 282 283 285 287 288 289 291 293 294 296 297 298 299 299 300 301 301 302 305 308 310 310 312 316 320 325 330 334 337
259 260 262 266 270 273 276 279 282 283 285 288 289 290 292 294 295 296 297 298 299 299 300 300 301 301 303 306 308 311 313 318 324 329 334 338 342 345
260 263 266 271 274 276 279 281 283 286 289 290 292 293 294 295 296 297 299 300 301 301 301 302 303 303 305 307 310 312 316 322 330 338 343 345 348 350
265 268 270 273 275 277 280 283 285 288 290 292 293 294 295 296 297 299 300 301 302 302 303 303 304 305 307 308 311 315 320 328 336 342 347 351 353 355
268 269 271 274 277 282 284 286 287 289 291 291 292 295 296 297 300 301 301 303 303 303 304 304 305 307 309 311 316 323 329 335 342 347 352 356 359 360
269 270 273 276 280 283 286 287 288 289 289 291 293 295 297 299 300 301 301 303 304 305 306 307 307 309 311 314 321 330 337 344 350 354 358 1 1 1
270 273 277 279 282 284 287 289 290 290 291 292 294 296 298 300 300 301 301 304 305 307 308 309 310 312 314 317 325 335 345 353 358 359 0 1 1 1
274 277 280 282 284 287 288 290 290 291 293 294 296 298 300 301 301 301 303 305 307 311 312 311 313 316 319 323 331 343 352 357 357 357 358 359 359 358
281 282 283 285 288 290 291 291 293 295 296 298 298 300 302 304 305 305 306 307 311 314 316 317 319 322 321 326 336 346 354 355 355 355 356 356 356 355
287 287 288 289 290 292 294 297 298 299 300 301 301 303 305 307 307 308 309 310 314 318 323 327 328 329 328 334 345 350 353 353 353 353 352 352 352 352
295 295 295 295 296 299 301 302 303 304 305 306 307 309 312 312 312 314 316 317 320 324 331 337 339 339 340 342 348 351 350 350 349 349 349 348 348 349
310 309 309 310 309 309 308 308 310 312 314 316 316 318 321 321 321 323 324 325 330 337 344 352 355 353 349 349 349 349 346 344 344 344 344 345 346 347
346 341 338 333 325 321 320 320 322 325 326 328 330 330 331 333 335 337 338 342 346 350 352 356 3 2 355 347 342 342 341 340 339 339 341 343 344 345
25 16 7 358 352 347 345 344 343 344 346 348 351 353 354 354 357 360 1 2 1 357 353 355 0 357 346 340 337 336 335 335 335 336 338 340 342 343
37 33 29 26 22 20 17 14 11 10 11 11 13 14 13 14 17 17 14 9 2 358 355 352 349 343 338 334 332 332 333 333 333 334 335 337 339 341